TimeCST,TemperatureF,Dew PointF,Humidity,Sea Level PressureIn,VisibilityMPH,Wind Direction,Wind SpeedMPH,Gust SpeedMPH,PrecipitationIn,Events,Conditions,WindDirDegrees,DateUTC
12:53 AM,8.1,3.0,80,30.37,10.0,NW,5.8,-,N/A,,Overcast,320,2011-11-20 06:53:00
1:27 AM,8.6,1.4,73,30.30,10.0,NNW,6.9,-,N/A,,Overcast,330,2011-11-20 07:27:00
1:53 AM,8.1,1.9,76,30.36,10.0,NW,6.9,-,N/A,,Overcast,320,2011-11-20 07:53:00
2:17 AM,6.8,1.4,79,30.30,10.0,NNW,4.6,-,N/A,,Overcast,330,2011-11-20 08:17:00
2:25 AM,6.8,3.2,85,30.30,10.0,NW,3.5,-,N/A,,Overcast,320,2011-11-20 08:25:00
2:53 AM,8.1,3.0,80,30.37,10.0,Calm,Calm,-,N/A,,Overcast,0,2011-11-20 08:53:00
3:53 AM,8.1,1.9,76,30.37,10.0,Calm,Calm,-,N/A,,Overcast,0,2011-11-20 09:53:00
4:53 AM,8.1,3.0,80,30.37,10.0,Calm,Calm,-,N/A,,Overcast,0,2011-11-20 10:53:00
5:53 AM,6.8,3.2,85,30.31,10.0,Calm,Calm,-,N/A,,Overcast,0,2011-11-20 11:53:00
6:53 AM,8.1,3.0,80,30.40,10.0,Calm,Calm,-,N/A,,Overcast,0,2011-11-20 12:53:00
7:53 AM,8.6,3.2,79,30.33,10.0,Calm,Calm,-,N/A,,Overcast,0,2011-11-20 13:53:00
8:53 AM,9.0,3.0,77,30.41,10.0,South,3.5,-,N/A,,Scattered Clouds,180,2011-11-20 14:53:00
9:53 AM,10.9,3.0,70,30.41,10.0,South,4.6,-,N/A,,Partly Cloudy,170,2011-11-20 15:53:00
10:53 AM,12.9,3.9,67,30.40,10.0,South,9.2,-,N/A,,Partly Cloudy,190,2011-11-20 16:53:00
11:53 AM,15.1,5.0,64,30.38,10.0,SSW,10.4,-,N/A,,Partly Cloudy,200,2011-11-20 17:53:00
12:53 PM,17.1,6.1,62,30.35,10.0,SSW,9.2,-,N/A,,Clear,200,2011-11-20 18:53:00
1:53 PM,19.0,8.1,62,30.33,10.0,South,9.2,-,N/A,,Partly Cloudy,190,2011-11-20 19:53:00
2:53 PM,19.0,8.1,62,30.31,10.0,South,12.7,-,N/A,,Partly Cloudy,180,2011-11-20 20:53:00
3:53 PM,19.0,8.1,62,30.30,10.0,South,13.8,-,N/A,,Partly Cloudy,190,2011-11-20 21:53:00
4:53 PM,17.1,7.0,65,30.28,10.0,South,8.1,-,N/A,,Scattered Clouds,170,2011-11-20 22:53:00
5:53 PM,15.1,7.0,70,30.27,10.0,SSE,9.2,-,N/A,,Scattered Clouds,160,2011-11-20 23:53:00
6:53 PM,15.1,7.0,70,30.24,10.0,SSE,12.7,-,N/A,,Scattered Clouds,150,2011-11-21 00:53:00
7:53 PM,15.8,6.8,68,30.16,10.0,SSE,11.5,-,N/A,,Clear,160,2011-11-21 01:53:00
8:53 PM,14.0,7.0,74,30.22,10.0,South,11.5,-,N/A,,Clear,180,2011-11-21 02:53:00
9:53 PM,14.0,6.1,71,30.20,10.0,South,12.7,-,N/A,,Clear,170,2011-11-21 03:53:00
10:53 PM,14.0,7.0,74,30.17,10.0,South,15.0,-,N/A,,Clear,170,2011-11-21 04:53:00
11:53 PM,12.9,7.0,77,30.19,10.0,South,12.7,-,N/A,,Partly Cloudy,180,2011-11-21 05:53:00